Time,TemperatureF,DewpointF,PressureIn,WindDirection,WindDirectionDegrees,WindSpeedMPH,WindSpeedGustMPH,Humidity,HourlyPrecipIn,Conditions,Clouds,dailyrainin,SoftwareType,DateUTC
2013-02-05 00:00:00,7.2,4.6,29.70,North,0,0.0,0.0,89,0.00,CLR,,0.00,WeatherDisplay:10.37,2013-02-05 09:00:00,
2013-02-05 00:10:00,7.2,4.1,29.70,North,0,0.0,0.0,87,0.00,CLR,,0.00,WeatherDisplay:10.37,2013-02-05 09:10:00,
2013-02-05 00:15:00,7.2,4.4,29.70,North,0,0.0,0.0,88,0.00,CLR,,0.00,WeatherDisplay:10.37,2013-02-05 09:15:00,
2013-02-05 00:20:00,6.9,4.4,29.70,North,0,0.0,0.0,89,0.00,CLR,,0.00,WeatherDisplay:10.37,2013-02-05 09:20:00,
2013-02-05 00:25:00,6.6,3.3,29.70,North,0,0.0,0.0,86,0.00,CLR,,0.00,WeatherDisplay:10.37,2013-02-05 09:25:00,
2013-02-05 00:30:00,6.6,4.3,29.70,North,0,0.0,0.0,90,0.00,CLR,,0.00,WeatherDisplay:10.37,2013-02-05 09:30:00,
2013-02-05 00:40:00,7.1,4.1,29.70,North,0,0.0,0.0,87,0.00,CLR,,0.00,WeatherDisplay:10.37,2013-02-05 09:40:00,
2013-02-05 00:50:00,7.2,4.8,29.70,North,0,0.0,0.0,90,0.00,CLR,,0.00,WeatherDisplay:10.37,2013-02-05 09:50:00,
2013-02-05 00:55:00,7.2,4.4,29.70,North,0,0.0,0.0,88,0.00,CLR,,0.00,WeatherDisplay:10.37,2013-02-05 09:55:00,
2013-02-05 01:00:00,7.1,4.3,29.70,North,0,0.0,0.0,88,0.00,CLR,,0.00,WeatherDisplay:10.37,2013-02-05 10:00:00,
2013-02-05 01:15:00,6.7,2.9,29.70,North,0,0.0,0.0,84,0.00,CLR,,0.00,WeatherDisplay:10.37,2013-02-05 10:15:00,
2013-02-05 01:25:00,7.2,3.7,29.70,North,0,0.0,0.0,85,0.00,CLR,,0.00,WeatherDisplay:10.37,2013-02-05 10:25:00,
2013-02-05 01:30:00,7.4,4.1,29.70,North,0,0.0,0.0,86,0.00,CLR,,0.00,WeatherDisplay:10.37,2013-02-05 10:30:00,
2013-02-05 01:40:00,8.1,5.5,29.70,North,0,0.0,0.0,89,0.00,CLR,,0.00,WeatherDisplay:10.37,2013-02-05 10:40:00,
2013-02-05 01:45:00,8.1,5.0,29.70,North,0,0.0,0.0,87,0.00,CLR,,0.00,WeatherDisplay:10.37,2013-02-05 10:45:00,
2013-02-05 01:50:00,7.7,4.4,29.70,North,0,0.0,0.0,86,0.00,CLR,,0.00,WeatherDisplay:10.37,2013-02-05 10:50:00,
2013-02-05 01:55:00,7.5,4.2,29.70,North,0,0.0,0.0,86,0.00,CLR,,0.00,WeatherDisplay:10.37,2013-02-05 10:55:00,
2013-02-05 02:00:00,7.2,3.9,29.70,North,0,0.0,0.0,86,0.00,CLR,,0.00,WeatherDisplay:10.37,2013-02-05 11:00:00,
2013-02-05 02:05:00,7.1,3.8,29.70,North,0,0.0,0.0,86,0.00,CLR,,0.00,WeatherDisplay:10.37,2013-02-05 11:05:00,
2013-02-05 02:10:00,6.9,3.6,29.70,North,0,0.0,0.0,86,0.00,CLR,,0.00,WeatherDisplay:10.37,2013-02-05 11:10:00,
2013-02-05 02:15:00,6.6,3.3,29.70,North,0,0.0,0.0,86,0.00,CLR,,0.00,WeatherDisplay:10.37,2013-02-05 11:15:00,
2013-02-05 02:20:00,6.6,3.8,29.70,North,0,0.0,0.0,88,0.00,CLR,,0.00,WeatherDisplay:10.37,2013-02-05 11:20:00,
2013-02-05 02:25:00,6.6,3.8,29.70,North,0,0.0,0.0,88,0.00,CLR,,0.00,WeatherDisplay:10.37,2013-02-05 11:25:00,
2013-02-05 02:30:00,6.6,3.5,29.70,North,0,0.0,0.0,87,0.00,CLR,,0.00,WeatherDisplay:10.37,2013-02-05 11:30:00,
2013-02-05 02:40:00,6.3,3.0,29.70,North,0,0.0,0.0,86,0.00,CLR,,0.00,WeatherDisplay:10.37,2013-02-05 11:40:00,
2013-02-05 02:45:00,5.9,2.6,29.70,North,0,0.0,0.0,86,0.00,CLR,,0.00,WeatherDisplay:10.37,2013-02-05 11:45:00,
2013-02-05 02:55:00,5.4,2.1,29.69,North,0,0.0,0.0,86,0.00,CLR,,0.00,WeatherDisplay:10.37,2013-02-05 11:55:00,
2013-02-05 03:00:00,5.2,1.7,29.70,North,0,0.0,0.0,85,0.00,CLR,,0.00,WeatherDisplay:10.37,2013-02-05 12:00:00,
2013-02-05 03:10:00,5.4,2.1,29.70,North,0,0.0,0.0,86,0.00,CLR,,0.00,WeatherDisplay:10.37,2013-02-05 12:10:00,
2013-02-05 03:15:00,5.2,1.9,29.69,North,0,0.0,0.0,86,0.00,CLR,,0.00,WeatherDisplay:10.37,2013-02-05 12:15:00,
2013-02-05 03:25:00,4.5,0.9,29.69,North,0,0.0,0.0,85,0.00,CLR,,0.00,WeatherDisplay:10.37,2013-02-05 12:25:00,
2013-02-05 03:30:00,4.4,0.9,29.69,North,0,0.0,0.0,85,0.00,CLR,,0.00,WeatherDisplay:10.37,2013-02-05 12:30:00,
2013-02-05 03:35:00,4.5,1.2,29.69,North,0,0.0,0.0,86,0.00,CLR,,0.00,WeatherDisplay:10.37,2013-02-05 12:35:00,
2013-02-05 03:40:00,4.3,1.3,29.69,North,0,0.0,0.0,87,0.00,CLR,,0.00,WeatherDisplay:10.37,2013-02-05 12:40:00,
2013-02-05 03:45:00,4.1,0.8,29.69,North,0,0.0,0.0,86,0.00,CLR,,0.00,WeatherDisplay:10.37,2013-02-05 12:45:00,
2013-02-05 03:55:00,3.6,0.6,29.69,North,0,0.0,0.0,87,0.00,CLR,,0.00,WeatherDisplay:10.37,2013-02-05 12:55:00,
2013-02-05 04:00:00,3.4,-0.1,29.69,North,0,0.0,0.0,85,0.00,CLR,,0.00,WeatherDisplay:10.37,2013-02-05 13:00:00,
2013-02-05 04:10:00,2.7,-0.7,29.69,North,0,0.0,0.0,85,0.00,CLR,,0.00,WeatherDisplay:10.37,2013-02-05 13:10:00,
2013-02-05 04:15:00,2.7,-0.8,29.69,North,0,0.0,0.0,85,0.00,CLR,,0.00,WeatherDisplay:10.37,2013-02-05 13:15:00,
2013-02-05 04:25:00,3.1,-0.2,29.70,North,0,0.0,0.0,86,0.00,CLR,,0.00,WeatherDisplay:10.37,2013-02-05 13:25:00,
2013-02-05 04:30:00,2.5,-0.5,29.70,North,0,0.0,0.0,87,0.00,CLR,,0.00,WeatherDisplay:10.37,2013-02-05 13:30:00,
2013-02-05 04:40:00,1.8,-2.2,29.69,North,0,0.0,0.0,83,0.00,CLR,,0.00,WeatherDisplay:10.37,2013-02-05 13:40:00,
2013-02-05 04:45:00,1.6,-1.4,29.70,North,0,0.0,0.0,87,0.00,CLR,,0.00,WeatherDisplay:10.37,2013-02-05 13:45:00,
2013-02-05 04:55:00,0.7,-2.5,29.70,North,0,0.0,0.0,86,0.00,CLR,,0.00,WeatherDisplay:10.37,2013-02-05 13:55:00,
2013-02-05 05:00:00,0.1,-3.1,29.70,North,0,0.0,0.0,86,0.00,CLR,,0.00,WeatherDisplay:10.37,2013-02-05 14:00:00,
2013-02-05 05:10:00,-0.2,-3.7,29.69,North,0,0.0,0.0,85,0.00,CLR,,0.00,WeatherDisplay:10.37,2013-02-05 14:10:00,
2013-02-05 05:15:00,-0.2,-3.7,29.70,North,0,0.0,0.0,85,0.00,CLR,,0.00,WeatherDisplay:10.37,2013-02-05 14:15:00,
2013-02-05 05:20:00,-0.6,-4.2,29.70,North,0,0.0,0.0,84,0.00,CLR,,0.00,WeatherDisplay:10.37,2013-02-05 14:20:00,
2013-02-05 05:25:00,-0.6,-4.3,29.70,North,0,0.0,0.0,84,0.00,CLR,,0.00,WeatherDisplay:10.37,2013-02-05 14:25:00,
2013-02-05 05:30:00,-0.8,-4.5,29.69,North,0,0.0,0.0,84,0.00,CLR,,0.00,WeatherDisplay:10.37,2013-02-05 14:30:00,
2013-02-05 05:40:00,-0.6,-4.3,29.70,North,0,0.0,0.0,84,0.00,CLR,,0.00,WeatherDisplay:10.37,2013-02-05 14:40:00,
2013-02-05 05:45:00,-0.2,-3.7,29.70,North,0,0.0,0.0,85,0.00,CLR,,0.00,WeatherDisplay:10.37,2013-02-05 14:45:00,
2013-02-05 05:50:00,0.0,-3.0,29.69,North,0,0.0,0.0,87,0.00,CLR,,0.00,WeatherDisplay:10.37,2013-02-05 14:50:00,
2013-02-05 05:55:00,0.1,-4.3,29.70,North,0,0.0,0.0,81,0.00,CLR,,0.00,WeatherDisplay:10.37,2013-02-05 14:55:00,
2013-02-05 06:00:00,0.2,-2.5,29.69,North,0,0.0,0.0,88,0.00,CLR,,0.00,WeatherDisplay:10.37,2013-02-05 15:00:00,
2013-02-05 06:10:00,0.1,-1.9,29.70,North,0,0.0,0.0,91,0.00,CLR,,0.00,WeatherDisplay:10.37,2013-02-05 15:10:00,
2013-02-05 06:15:00,0.3,-3.1,29.69,North,0,0.0,0.0,85,0.00,CLR,,0.00,WeatherDisplay:10.37,2013-02-05 15:15:00,
2013-02-05 06:25:00,1.0,-2.2,29.70,North,0,0.0,0.0,86,0.00,CLR,,0.00,WeatherDisplay:10.37,2013-02-05 15:25:00,
2013-02-05 06:30:00,1.2,-2.0,29.70,North,0,0.0,0.0,86,0.00,CLR,,0.00,WeatherDisplay:10.37,2013-02-05 15:30:00,
2013-02-05 06:40:00,1.4,-2.1,29.70,North,0,0.0,0.0,85,0.00,CLR,,0.00,WeatherDisplay:10.37,2013-02-05 15:40:00,
2013-02-05 06:45:00,1.6,-1.6,29.70,North,0,0.0,0.0,86,0.00,CLR,,0.00,WeatherDisplay:10.37,2013-02-05 15:45:00,
2013-02-05 06:50:00,1.4,-1.6,29.70,North,0,0.0,0.0,87,0.00,CLR,,0.00,WeatherDisplay:10.37,2013-02-05 15:50:00,
2013-02-05 07:00:00,1.2,-0.6,29.70,North,0,0.0,0.0,92,0.00,CLR,,0.00,WeatherDisplay:10.37,2013-02-05 16:00:00,
2013-02-05 07:05:00,1.2,-2.2,29.70,North,0,0.0,0.0,85,0.00,CLR,,0.00,WeatherDisplay:10.37,2013-02-05 16:05:00,
2013-02-05 07:10:00,1.2,-2.0,29.70,North,0,0.0,0.0,86,0.00,CLR,,0.00,WeatherDisplay:10.37,2013-02-05 16:10:00,
2013-02-05 07:15:00,1.2,-2.0,29.70,North,0,0.0,0.0,86,0.00,CLR,,0.00,WeatherDisplay:10.37,2013-02-05 16:15:00,
2013-02-05 07:20:00,1.1,-2.1,29.70,North,0,0.0,0.0,86,0.00,CLR,,0.00,WeatherDisplay:10.37,2013-02-05 16:20:00,
2013-02-05 07:25:00,0.9,-1.4,29.70,North,0,0.0,0.0,90,0.00,CLR,,0.00,WeatherDisplay:10.37,2013-02-05 16:25:00,
2013-02-05 07:30:00,0.9,-2.3,29.70,North,0,0.0,0.0,86,0.00,CLR,,0.00,WeatherDisplay:10.37,2013-02-05 16:30:00,
2013-02-05 07:40:00,0.6,-2.6,29.70,North,0,0.0,0.0,86,0.00,CLR,,0.00,WeatherDisplay:10.37,2013-02-05 16:40:00,
2013-02-05 07:45:00,0.7,-2.5,29.70,North,0,0.0,0.0,86,0.00,CLR,,0.00,WeatherDisplay:10.37,2013-02-05 16:45:00,
2013-02-05 07:55:00,0.7,-2.3,29.71,North,0,0.0,0.0,87,0.00,CLR,,0.00,WeatherDisplay:10.37,2013-02-05 16:55:00,
2013-02-05 08:00:00,0.8,-2.4,29.70,North,0,0.0,0.0,86,0.00,CLR,,0.00,WeatherDisplay:10.37,2013-02-05 17:00:00,
2013-02-05 08:10:00,1.4,-1.9,29.70,North,0,0.0,0.0,86,0.00,CLR,,0.00,WeatherDisplay:10.37,2013-02-05 17:10:00,
2013-02-05 08:15:00,1.6,-1.6,29.70,North,0,0.0,0.0,86,0.00,CLR,,0.00,WeatherDisplay:10.37,2013-02-05 17:15:00,
2013-02-05 08:20:00,1.8,-1.2,29.70,North,0,0.0,0.0,87,0.00,CLR,,0.00,WeatherDisplay:10.37,2013-02-05 17:20:00,
2013-02-05 08:25:00,2.1,-1.1,29.70,North,0,0.0,0.0,86,0.00,CLR,,0.00,WeatherDisplay:10.37,2013-02-05 17:25:00,
2013-02-05 08:30:00,2.3,-0.7,29.70,North,0,0.0,0.0,87,0.00,CLR,,0.00,WeatherDisplay:10.37,2013-02-05 17:30:00,
2013-02-05 08:35:00,2.4,-0.3,29.70,North,0,0.0,0.0,88,0.00,CLR,,0.00,WeatherDisplay:10.37,2013-02-05 17:35:00,
2013-02-05 08:45:00,2.1,-0.6,29.71,North,0,0.0,0.0,88,0.00,CLR,,0.00,WeatherDisplay:10.37,2013-02-05 17:45:00,
2013-02-05 08:50:00,2.2,-0.8,29.70,North,0,0.0,0.0,87,0.00,CLR,,0.00,WeatherDisplay:10.37,2013-02-05 17:50:00,
2013-02-05 08:55:00,2.1,-0.9,29.70,North,0,0.0,0.0,87,0.00,CLR,,0.00,WeatherDisplay:10.37,2013-02-05 17:55:00,
2013-02-05 09:00:00,2.1,-0.6,29.70,North,0,0.0,0.0,88,0.00,CLR,,0.00,WeatherDisplay:10.37,2013-02-05 18:00:00,
2013-02-05 09:05:00,2.1,-0.6,29.71,North,0,0.0,0.0,88,0.00,CLR,,0.00,WeatherDisplay:10.37,2013-02-05 18:05:00,
2013-02-05 09:10:00,2.1,-0.6,29.71,North,0,0.0,0.0,88,0.00,CLR,,0.00,WeatherDisplay:10.37,2013-02-05 18:10:00,
2013-02-05 09:15:00,1.8,-0.9,29.70,North,0,0.0,0.0,88,0.00,CLR,,0.00,WeatherDisplay:10.37,2013-02-05 18:15:00,
2013-02-05 09:25:00,1.9,-1.5,29.71,North,0,0.0,0.0,85,0.00,CLR,,0.00,WeatherDisplay:10.37,2013-02-05 18:25:00,
2013-02-05 09:30:00,2.1,-0.6,29.70,North,0,0.0,0.0,88,0.00,CLR,,0.00,WeatherDisplay:10.37,2013-02-05 18:30:00,
2013-02-05 09:40:00,2.5,-0.5,29.70,North,0,0.0,0.0,87,0.00,CLR,,0.00,WeatherDisplay:10.37,2013-02-05 18:40:00,
2013-02-05 09:45:00,2.5,0.0,29.70,North,0,0.0,0.0,89,0.00,CLR,,0.00,WeatherDisplay:10.37,2013-02-05 18:45:00,
2013-02-05 09:50:00,2.5,-0.5,29.70,North,0,0.0,0.0,87,0.00,CLR,,0.00,WeatherDisplay:10.37,2013-02-05 18:50:00,
2013-02-05 10:00:00,2.7,-0.1,29.70,North,0,0.0,0.0,88,0.00,CLR,,0.00,WeatherDisplay:10.37,2013-02-05 19:00:00,
2013-02-05 10:10:00,3.0,0.0,29.70,North,0,0.0,0.0,87,0.00,CLR,,0.00,WeatherDisplay:10.37,2013-02-05 19:10:00,
2013-02-05 10:15:00,3.4,0.4,29.70,North,0,0.0,0.0,87,0.00,CLR,,0.00,WeatherDisplay:10.37,2013-02-05 19:15:00,
2013-02-05 10:20:00,3.4,0.6,29.70,North,0,0.0,0.0,88,0.00,CLR,,0.00,WeatherDisplay:10.37,2013-02-05 19:20:00,
2013-02-05 10:30:00,3.2,0.2,29.70,North,0,0.0,0.0,87,0.00,CLR,,0.00,WeatherDisplay:10.37,2013-02-05 19:30:00,
2013-02-05 10:35:00,3.4,1.3,29.71,North,0,0.0,0.0,91,0.00,CLR,,0.00,WeatherDisplay:10.37,2013-02-05 19:35:00,
2013-02-05 10:40:00,3.6,1.5,29.70,North,0,0.0,0.0,91,0.00,CLR,,0.00,WeatherDisplay:10.37,2013-02-05 19:40:00,
2013-02-05 10:45:00,3.6,1.8,29.70,North,0,0.0,0.0,92,0.00,CLR,,0.00,WeatherDisplay:10.37,2013-02-05 19:45:00,
2013-02-05 10:55:00,3.7,1.5,29.70,North,0,0.0,0.0,90,0.00,CLR,,0.00,WeatherDisplay:10.37,2013-02-05 19:55:00,
2013-02-05 11:00:00,3.7,1.5,29.70,North,0,0.0,0.0,90,0.00,CLR,,0.00,WeatherDisplay:10.37,2013-02-05 20:00:00,
2013-02-05 11:05:00,3.9,1.4,29.70,North,0,0.0,0.0,89,0.00,CLR,,0.00,WeatherDisplay:10.37,2013-02-05 20:05:00,
2013-02-05 11:15:00,3.9,1.4,29.70,North,0,0.0,0.0,89,0.00,CLR,,0.00,WeatherDisplay:10.37,2013-02-05 20:15:00,
2013-02-05 11:25:00,4.1,1.8,29.70,North,0,0.0,0.0,90,0.00,CLR,,0.00,WeatherDisplay:10.37,2013-02-05 20:25:00,
2013-02-05 11:30:00,3.9,1.6,29.70,North,0,0.0,0.0,90,0.00,CLR,,0.00,WeatherDisplay:10.37,2013-02-05 20:30:00,
2013-02-05 11:40:00,3.6,1.0,29.70,North,0,0.0,0.0,89,0.00,CLR,,0.00,WeatherDisplay:10.37,2013-02-05 20:40:00,
2013-02-05 11:45:00,3.6,1.0,29.71,North,0,0.0,0.0,89,0.00,CLR,,0.00,WeatherDisplay:10.37,2013-02-05 20:45:00,
2013-02-05 11:55:00,3.6,0.8,29.72,North,0,0.0,0.0,88,0.00,CLR,,0.00,WeatherDisplay:10.37,2013-02-05 20:55:00,
2013-02-05 12:00:00,3.6,0.8,29.72,North,0,0.0,0.0,88,0.00,CLR,,0.00,WeatherDisplay:10.37,2013-02-05 21:00:00,
2013-02-05 12:05:00,3.6,1.0,29.71,North,0,0.0,0.0,89,0.00,CLR,,0.00,WeatherDisplay:10.37,2013-02-05 21:05:00,
2013-02-05 12:15:00,3.7,1.2,29.71,North,0,0.0,0.0,89,0.00,CLR,,0.00,WeatherDisplay:10.37,2013-02-05 21:15:00,
2013-02-05 12:20:00,3.9,1.2,29.70,North,0,0.0,0.0,88,0.00,CLR,,0.00,WeatherDisplay:10.37,2013-02-05 21:20:00,
2013-02-05 12:30:00,4.3,2.0,29.69,North,0,0.0,0.0,90,0.00,CLR,,0.00,WeatherDisplay:10.37,2013-02-05 21:30:00,
2013-02-05 12:40:00,5.0,1.7,29.70,North,0,0.0,0.0,86,0.00,CLR,,0.00,WeatherDisplay:10.37,2013-02-05 21:40:00,
2013-02-05 12:45:00,5.4,2.6,29.70,North,0,0.0,0.0,88,0.00,CLR,,0.00,WeatherDisplay:10.37,2013-02-05 21:45:00,
2013-02-05 12:55:00,5.9,3.1,29.70,North,0,0.0,0.0,88,0.00,CLR,,0.00,WeatherDisplay:10.37,2013-02-05 21:55:00,
2013-02-05 13:00:00,6.0,3.2,29.70,North,0,0.0,0.0,88,0.00,CLR,,0.00,WeatherDisplay:10.37,2013-02-05 22:00:00,
2013-02-05 13:05:00,6.1,3.3,29.71,North,0,0.0,0.0,88,0.00,CLR,,0.00,WeatherDisplay:10.37,2013-02-05 22:05:00,
2013-02-05 13:10:00,6.3,3.5,29.70,North,0,0.0,0.0,88,0.00,CLR,,0.00,WeatherDisplay:10.37,2013-02-05 22:10:00,
2013-02-05 13:15:00,6.6,3.6,29.70,North,0,0.0,0.0,87,0.00,CLR,,0.00,WeatherDisplay:10.37,2013-02-05 22:15:00,
2013-02-05 13:20:00,6.7,3.7,29.70,North,0,0.0,0.0,87,0.00,CLR,,0.00,WeatherDisplay:10.37,2013-02-05 22:20:00,
2013-02-05 13:30:00,6.9,3.8,29.70,North,0,0.0,0.0,87,0.00,CLR,,0.00,WeatherDisplay:10.37,2013-02-05 22:30:00,
2013-02-05 13:35:00,7.1,4.3,29.70,North,0,0.0,0.0,88,0.00,CLR,,0.00,WeatherDisplay:10.37,2013-02-05 22:35:00,
2013-02-05 13:45:00,7.5,4.5,29.70,North,0,0.0,0.0,87,0.00,CLR,,0.00,WeatherDisplay:10.37,2013-02-05 22:45:00,
2013-02-05 13:50:00,7.5,4.5,29.70,North,0,0.0,0.0,87,0.00,CLR,,0.00,WeatherDisplay:10.37,2013-02-05 22:50:00,
2013-02-05 13:55:00,7.5,4.5,29.70,North,0,0.0,0.0,87,0.00,CLR,,0.00,WeatherDisplay:10.37,2013-02-05 22:55:00,
2013-02-05 14:00:00,7.5,4.5,29.70,North,0,0.0,0.0,87,0.00,CLR,,0.00,WeatherDisplay:10.37,2013-02-05 23:00:00,
2013-02-05 14:10:00,7.7,4.6,29.70,North,0,0.0,0.0,87,0.00,CLR,,0.00,WeatherDisplay:10.37,2013-02-05 23:10:00,
2013-02-05 14:15:00,7.9,4.8,29.70,North,0,0.0,0.0,87,0.00,CLR,,0.00,WeatherDisplay:10.37,2013-02-05 23:15:00,
2013-02-05 14:25:00,7.7,4.4,29.70,North,0,0.0,0.0,86,0.00,CLR,,0.00,WeatherDisplay:10.37,2013-02-05 23:25:00,
2013-02-05 14:35:00,7.7,4.9,29.69,North,0,0.0,0.0,88,0.00,CLR,,0.00,WeatherDisplay:10.37,2013-02-05 23:35:00,
2013-02-05 14:45:00,8.1,5.0,29.69,North,0,0.0,0.0,87,0.00,CLR,,0.00,WeatherDisplay:10.37,2013-02-05 23:45:00,
2013-02-05 14:50:00,8.2,5.2,29.70,North,0,0.0,0.0,87,0.00,CLR,,0.00,WeatherDisplay:10.37,2013-02-05 23:50:00,
2013-02-05 14:55:00,8.3,5.3,29.69,North,0,0.0,0.0,87,0.00,CLR,,0.00,WeatherDisplay:10.37,2013-02-05 23:55:00,
2013-02-05 15:00:00,8.4,5.3,29.69,North,0,0.0,0.0,87,0.00,CLR,,0.00,WeatherDisplay:10.37,2013-02-06 00:00:00,
2013-02-05 15:10:00,8.4,5.3,29.69,North,0,0.0,0.0,87,0.00,CLR,,0.00,WeatherDisplay:10.37,2013-02-06 00:10:00,
2013-02-05 15:15:00,8.7,5.9,29.69,North,0,0.0,0.0,88,0.00,CLR,,0.00,WeatherDisplay:10.37,2013-02-06 00:15:00,
2013-02-05 15:25:00,9.3,6.2,29.69,North,0,0.0,0.0,87,0.00,CLR,,0.00,WeatherDisplay:10.37,2013-02-06 00:25:00,
2013-02-05 15:30:00,9.9,6.5,29.69,North,0,0.0,0.0,86,0.00,CLR,,0.00,WeatherDisplay:10.37,2013-02-06 00:30:00,
2013-02-05 15:40:00,9.3,7.5,29.69,North,0,0.0,0.0,92,0.00,CLR,,0.00,WeatherDisplay:10.37,2013-02-06 00:40:00,
2013-02-05 15:45:00,8.4,5.3,29.69,North,0,0.0,0.0,87,0.00,CLR,,0.00,WeatherDisplay:10.37,2013-02-06 00:45:00,
2013-02-05 15:50:00,7.7,4.6,29.69,North,0,0.0,0.0,87,0.00,CLR,,0.00,WeatherDisplay:10.37,2013-02-06 00:50:00,
2013-02-05 15:55:00,7.5,4.7,29.69,North,0,0.0,0.0,88,0.00,CLR,,0.00,WeatherDisplay:10.37,2013-02-06 00:55:00,
2013-02-05 16:05:00,7.8,4.3,29.69,North,0,0.0,0.0,85,0.00,CLR,,0.00,WeatherDisplay:10.37,2013-02-06 01:05:00,
2013-02-05 16:10:00,7.1,4.3,29.69,North,0,0.0,0.0,88,0.00,CLR,,0.00,WeatherDisplay:10.37,2013-02-06 01:10:00,
2013-02-05 16:15:00,6.3,3.5,29.69,North,0,0.0,0.0,88,0.00,CLR,,0.00,WeatherDisplay:10.37,2013-02-06 01:15:00,
2013-02-05 16:20:00,5.5,3.2,29.69,North,0,0.0,0.0,90,0.00,CLR,,0.00,WeatherDisplay:10.37,2013-02-06 01:20:00,
2013-02-05 16:25:00,4.9,2.4,29.69,North,0,0.0,0.0,89,0.00,CLR,,0.00,WeatherDisplay:10.37,2013-02-06 01:25:00,
2013-02-05 16:30:00,4.5,2.2,29.68,North,0,0.0,0.0,90,0.00,CLR,,0.00,WeatherDisplay:10.37,2013-02-06 01:30:00,
2013-02-05 16:35:00,4.1,0.3,29.68,North,0,0.0,0.0,84,0.00,CLR,,0.00,WeatherDisplay:10.37,2013-02-06 01:35:00,
2013-02-05 16:45:00,3.7,0.5,29.68,North,0,0.0,0.0,86,0.00,CLR,,0.00,WeatherDisplay:10.37,2013-02-06 01:45:00,
2013-02-05 16:55:00,3.9,0.9,29.68,North,0,0.0,0.0,87,0.00,CLR,,0.00,WeatherDisplay:10.37,2013-02-06 01:55:00,
2013-02-05 17:00:00,3.9,0.9,29.68,North,0,0.0,0.0,87,0.00,CLR,,0.00,WeatherDisplay:10.37,2013-02-06 02:00:00,
2013-02-05 17:05:00,3.7,0.7,29.68,North,0,0.0,0.0,87,0.00,CLR,,0.00,WeatherDisplay:10.37,2013-02-06 02:05:00,
2013-02-05 17:10:00,3.6,0.1,29.67,North,0,0.0,0.0,85,0.00,CLR,,0.00,WeatherDisplay:10.37,2013-02-06 02:10:00,
2013-02-05 17:15:00,3.6,0.6,29.68,North,0,0.0,0.0,87,0.00,CLR,,0.00,WeatherDisplay:10.37,2013-02-06 02:15:00,
2013-02-05 17:20:00,3.6,0.6,29.67,North,0,0.0,0.0,87,0.00,CLR,,0.00,WeatherDisplay:10.37,2013-02-06 02:20:00,
2013-02-05 17:25:00,3.6,0.3,29.67,North,0,0.0,0.0,86,0.00,CLR,,0.00,WeatherDisplay:10.37,2013-02-06 02:25:00,
2013-02-05 17:30:00,3.6,0.8,29.67,North,0,0.0,0.0,88,0.00,CLR,,0.00,WeatherDisplay:10.37,2013-02-06 02:30:00,
2013-02-05 17:40:00,3.9,1.4,29.67,North,0,0.0,0.0,89,0.00,CLR,,0.00,WeatherDisplay:10.37,2013-02-06 02:40:00,
2013-02-05 17:45:00,4.3,1.3,29.67,North,0,0.0,0.0,87,0.00,CLR,,0.00,WeatherDisplay:10.37,2013-02-06 02:45:00,
2013-02-05 17:55:00,4.8,2.0,29.67,North,0,0.0,0.0,88,0.00,CLR,,0.00,WeatherDisplay:10.37,2013-02-06 02:55:00,
2013-02-05 18:00:00,4.8,2.0,29.67,North,0,0.0,0.0,88,0.00,CLR,,0.00,WeatherDisplay:10.37,2013-02-06 03:00:00,
2013-02-05 18:05:00,4.8,2.3,29.67,North,0,0.0,0.0,89,0.00,CLR,,0.00,WeatherDisplay:10.37,2013-02-06 03:05:00,
2013-02-05 18:15:00,4.8,2.0,29.67,North,0,0.0,0.0,88,0.00,CLR,,0.00,WeatherDisplay:10.37,2013-02-06 03:15:00,
2013-02-05 18:25:00,4.7,1.9,29.67,North,0,0.0,0.0,88,0.00,CLR,,0.00,WeatherDisplay:10.37,2013-02-06 03:25:00,
2013-02-05 18:30:00,4.6,1.6,29.67,North,0,0.0,0.0,87,0.00,CLR,,0.00,WeatherDisplay:10.37,2013-02-06 03:30:00,
2013-02-05 18:40:00,4.5,2.2,29.67,North,0,0.0,0.0,90,0.00,CLR,,0.00,WeatherDisplay:10.37,2013-02-06 03:40:00,
2013-02-05 18:45:00,4.3,1.5,29.67,North,0,0.0,0.0,88,0.00,CLR,,0.00,WeatherDisplay:10.37,2013-02-06 03:45:00,
2013-02-05 18:55:00,3.9,0.9,29.67,North,0,0.0,0.0,87,0.00,CLR,,0.00,WeatherDisplay:10.37,2013-02-06 03:55:00,
2013-02-05 19:00:00,3.7,0.7,29.67,North,0,0.0,0.0,87,0.00,CLR,,0.00,WeatherDisplay:10.37,2013-02-06 04:00:00,
2013-02-05 19:10:00,3.6,0.6,29.67,North,0,0.0,0.0,87,0.00,CLR,,0.00,WeatherDisplay:10.37,2013-02-06 04:10:00,
2013-02-05 19:15:00,3.6,0.8,29.67,North,0,0.0,0.0,88,0.00,CLR,,0.00,WeatherDisplay:10.37,2013-02-06 04:15:00,
2013-02-05 19:25:00,3.7,0.7,29.67,North,0,0.0,0.0,87,0.00,CLR,,0.00,WeatherDisplay:10.37,2013-02-06 04:25:00,
2013-02-05 19:30:00,3.6,1.0,29.67,North,0,0.0,0.0,89,0.00,CLR,,0.00,WeatherDisplay:10.37,2013-02-06 04:30:00,
2013-02-05 19:35:00,3.6,0.8,29.67,North,0,0.0,0.0,88,0.00,CLR,,0.00,WeatherDisplay:10.37,2013-02-06 04:35:00,
2013-02-05 19:40:00,3.6,0.6,29.67,North,0,0.0,0.0,87,0.00,CLR,,0.00,WeatherDisplay:10.37,2013-02-06 04:40:00,
2013-02-05 19:45:00,3.6,0.6,29.67,North,0,0.0,0.0,87,0.00,CLR,,0.00,WeatherDisplay:10.37,2013-02-06 04:45:00,
2013-02-05 19:55:00,3.6,0.6,29.67,North,0,0.0,0.0,87,0.00,CLR,,0.00,WeatherDisplay:10.37,2013-02-06 04:55:00,
2013-02-05 20:00:00,3.6,0.6,29.67,North,0,0.0,0.0,87,0.00,CLR,,0.00,WeatherDisplay:10.37,2013-02-06 05:00:00,
2013-02-05 20:05:00,3.7,0.7,29.67,North,0,0.0,0.0,87,0.00,CLR,,0.00,WeatherDisplay:10.37,2013-02-06 05:05:00,
2013-02-05 20:10:00,3.9,0.9,29.67,North,0,0.0,0.0,87,0.00,CLR,,0.00,WeatherDisplay:10.37,2013-02-06 05:10:00,
2013-02-05 20:15:00,3.9,1.2,29.67,North,0,0.0,0.0,88,0.00,CLR,,0.00,WeatherDisplay:10.37,2013-02-06 05:15:00,
2013-02-05 20:20:00,3.9,1.4,29.67,North,0,0.0,0.0,89,0.00,CLR,,0.00,WeatherDisplay:10.37,2013-02-06 05:20:00,
2013-02-05 20:25:00,3.9,0.9,29.67,North,0,0.0,0.0,87,0.00,CLR,,0.00,WeatherDisplay:10.37,2013-02-06 05:25:00,
2013-02-05 20:30:00,3.9,1.2,29.67,North,0,0.0,0.0,88,0.00,CLR,,0.00,WeatherDisplay:10.37,2013-02-06 05:30:00,
2013-02-05 20:35:00,3.9,1.2,29.66,North,0,0.0,0.0,88,0.00,CLR,,0.00,WeatherDisplay:10.37,2013-02-06 05:35:00,
2013-02-05 20:40:00,3.9,1.2,29.66,North,0,0.0,0.0,88,0.00,CLR,,0.00,WeatherDisplay:10.37,2013-02-06 05:40:00,
2013-02-05 20:45:00,4.1,1.1,29.66,North,0,0.0,0.0,87,0.00,CLR,,0.00,WeatherDisplay:10.37,2013-02-06 05:45:00,
2013-02-05 20:50:00,4.1,1.1,29.66,North,0,0.0,0.0,87,0.00,CLR,,0.00,WeatherDisplay:10.37,2013-02-06 05:50:00,
2013-02-05 21:00:00,4.1,1.1,29.66,North,0,0.0,0.0,87,0.00,CLR,,0.00,WeatherDisplay:10.37,2013-02-06 06:00:00,
2013-02-05 21:10:00,3.9,0.9,29.66,North,0,0.0,0.0,87,0.00,CLR,,0.00,WeatherDisplay:10.37,2013-02-06 06:10:00,
2013-02-05 21:15:00,3.7,1.1,29.66,North,0,0.0,0.0,89,0.00,CLR,,0.00,WeatherDisplay:10.37,2013-02-06 06:15:00,
2013-02-05 21:20:00,3.6,1.3,29.66,North,0,0.0,0.0,90,0.00,CLR,,0.00,WeatherDisplay:10.37,2013-02-06 06:20:00,
2013-02-05 21:25:00,3.6,0.6,29.66,North,0,0.0,0.0,87,0.00,CLR,,0.00,WeatherDisplay:10.37,2013-02-06 06:25:00,
2013-02-05 21:30:00,3.4,0.4,29.66,North,0,0.0,0.0,87,0.00,CLR,,0.00,WeatherDisplay:10.37,2013-02-06 06:30:00,
2013-02-05 21:40:00,3.4,0.1,29.66,North,0,0.0,0.0,86,0.00,CLR,,0.00,WeatherDisplay:10.37,2013-02-06 06:40:00,
2013-02-05 21:45:00,3.3,0.0,29.66,North,0,0.0,0.0,86,0.00,CLR,,0.00,WeatherDisplay:10.37,2013-02-06 06:45:00,
2013-02-05 21:55:00,3.0,0.0,29.66,North,0,0.0,0.0,87,0.00,CLR,,0.00,WeatherDisplay:10.37,2013-02-06 06:55:00,
2013-02-05 22:00:00,3.2,0.2,29.66,North,0,0.0,0.0,87,0.00,CLR,,0.00,WeatherDisplay:10.37,2013-02-06 07:00:00,
2013-02-05 22:05:00,3.4,0.1,29.66,North,0,0.0,0.0,86,0.00,CLR,,0.00,WeatherDisplay:10.37,2013-02-06 07:05:00,
2013-02-05 22:10:00,3.7,0.7,29.66,North,0,0.0,0.0,87,0.00,CLR,,0.00,WeatherDisplay:10.37,2013-02-06 07:10:00,
2013-02-05 22:15:00,3.8,0.6,29.66,North,0,0.0,0.0,86,0.00,CLR,,0.00,WeatherDisplay:10.37,2013-02-06 07:15:00,
2013-02-05 22:25:00,3.9,0.7,29.66,North,0,0.0,0.0,86,0.00,CLR,,0.00,WeatherDisplay:10.37,2013-02-06 07:25:00,
2013-02-05 22:30:00,3.9,0.9,29.66,North,0,0.0,0.0,87,0.00,CLR,,0.00,WeatherDisplay:10.37,2013-02-06 07:30:00,
2013-02-05 22:40:00,3.9,0.9,29.66,North,0,0.0,0.0,87,0.00,CLR,,0.00,WeatherDisplay:10.37,2013-02-06 07:40:00,
2013-02-05 22:45:00,3.9,0.7,29.65,North,0,0.0,0.0,86,0.00,CLR,,0.00,WeatherDisplay:10.37,2013-02-06 07:45:00,
2013-02-05 22:55:00,3.9,0.7,29.66,North,0,0.0,0.0,86,0.00,CLR,,0.00,WeatherDisplay:10.37,2013-02-06 07:55:00,
2013-02-05 23:00:00,3.9,0.9,29.66,North,0,0.0,0.0,87,0.00,CLR,,0.00,WeatherDisplay:10.37,2013-02-06 08:00:00,
2013-02-05 23:05:00,3.9,0.7,29.66,North,0,0.0,0.0,86,0.00,CLR,,0.00,WeatherDisplay:10.37,2013-02-06 08:05:00,
2013-02-05 23:15:00,3.7,0.5,29.65,North,0,0.0,0.0,86,0.00,CLR,,0.00,WeatherDisplay:10.37,2013-02-06 08:15:00,
2013-02-05 23:25:00,3.6,0.6,29.65,North,0,0.0,0.0,87,0.00,CLR,,0.00,WeatherDisplay:10.37,2013-02-06 08:25:00,
2013-02-05 23:30:00,3.6,1.0,29.66,North,0,0.0,0.0,89,0.00,CLR,,0.00,WeatherDisplay:10.37,2013-02-06 08:30:00,
2013-02-05 23:40:00,3.2,0.2,29.66,North,0,0.0,0.0,87,0.00,CLR,,0.00,WeatherDisplay:10.37,2013-02-06 08:40:00,
2013-02-05 23:45:00,3.2,0.2,29.65,North,0,0.0,0.0,87,0.00,CLR,,0.00,WeatherDisplay:10.37,2013-02-06 08:45:00,
2013-02-05 23:55:00,3.2,0.7,29.65,North,0,0.0,0.0,89,0.00,CLR,,0.00,WeatherDisplay:10.37,2013-02-06 08:55:00,